Location: Unspecified
(0.0000°N, 0.0000°E)
Time: 14:45:43
(UTC+00:00)

COSMOS 2251 DEB - Visible Passes

Search period start: 15 December 2025 00:00
Search period end: 25 December 2025 00:00
Orbit: 643 x 675 km, 73.9° (Epoch: 14 December)

Date Brightness Start Highest point End Pass type
(mag) Time Alt. Az. Time Alt. Az. Time Alt. Az.
21 Dec ? 20:34:29 10° S 20:34:35 11° S 20:34:35 11° S visible
23 Dec ? 19:55:07 10° S 19:56:56 22° SSE 19:56:56 22° SSE visible
24 Dec ? 20:24:55 10° SSW 20:27:11 27° SW 20:27:11 27° SW visible
